This demonstration page uses our WeatherBlox Daily Observations layout. Learn more.

Left ArrowRight Arrow

Hourly Observations for November 1, 2018

Temp ( °F °C ) Dew Point ( °F °C ) Humidity (%) Winds ( mph kmh ) Pressure ( in mb ) Visibility ( mi km ) Precip ( " mm )
12:52 am 00:52 Partly Cloudy 41 5 36 2.2 82 82 Calm 29.95 1014 10 16 0.00 0.00
1:52 am 01:52 Mostly Clear 38 3.3 35 1.7 89 89 NW 5 7 29.93 1014 10 16 0.00 0.00
2:52 am 02:52 Mostly Clear 35 1.7 32 0 89 89 N 3 6 29.95 1014 10 16 0.00 0.00
3:52 am 03:52 Clear 33 0.6 30 -1.1 89 89 NW 6 9 29.93 1013 10 16 0.00 0.00
4:52 am 04:52 Clear 36 2.2 32 0 86 86 Calm 29.92 1013 10 16 0.00 0.00
5:52 am 05:52 Mostly Clear 36 2.2 32 0 86 86 Calm 29.93 1014 10 16 0.00 0.00
6:52 am 06:52 Partly Cloudy 35 1.7 32 0 89 89 Calm 29.92 1013 10 16 0.00 0.00
7:06 am 07:06 Partly Cloudy 35 1.7 32 0 89 89 NNW 3 6 29.94 1014 1 2 0.00 0.00
7:09 am 07:09 Partly Cloudy with Mist and Fog 34 1.1 32 0 92 92 NNW 3 6 29.97 1015 5 8 0.00 0.00
7:16 am 07:16 Partly Cloudy with Fog 33 0.6 32 0 96 96 NNW 3 6 29.97 1015 1 1 0.00 0.00
7:30 am 07:30 Mostly Cloudy with Fog 33 0.6 31 -0.6 92 92 NNW 5 7 29.97 1015 0 0 0.00 0.00
7:40 am 07:40 Partly Cloudy with Mist and Fog 33 0.6 31 -0.6 92 92 N 3 6 29.97 1015 4 6 0.00 0.00
7:52 am 07:52 Mostly Cloudy with Patchy Fog 34 1.1 32 0 92 92 NNE 3 6 29.93 1014 7 11 0.00 0.00
8:52 am 08:52 Mostly Cloudy with Patchy Fog 34 1.1 32 0 92 92 NW 3 6 29.93 1014 7 11 0.00 0.00
9:52 am 09:52 Partly Cloudy 38 3.3 35 1.7 89 89 Calm 29.94 1014 10 16 0.00 0.00
10:52 am 10:52 Partly Cloudy 44 6.7 38 3.3 79 79 Calm 29.93 1014 10 16 0.00 0.00
11:52 am 11:52 Partly Cloudy 50 10 36 2.2 59 59 Calm 29.93 1013 10 16 0.00 0.00
12:52 pm 12:52 Partly Cloudy 56 13.3 34 1.1 44 44 SSE 3 6 29.90 1013 10 16 0.00 0.00
1:52 pm 13:52 Partly Cloudy 59 15 28 -2.2 31 31 VRB 3 6 29.87 1012 10 16 0.00 0.00
2:52 pm 14:52 Partly Cloudy 60 15.6 27 -2.8 28 28 SE 5 7 29.84 1011 10 16 0.00 0.00
3:52 pm 15:52 Partly Cloudy 61 16.1 22 -5.6 22 22 SSW 6 9 29.83 1010 10 16 0.00 0.00
4:52 pm 16:52 Mostly Cloudy 61 16.1 21 -6.1 21 21 Calm 29.82 1010 10 16 0.00 0.00
5:52 pm 17:52 Mostly Cloudy 59 15 24 -4.4 26 26 S 7 11 29.80 1009 10 16 0.00 0.00
6:52 pm 18:52 Cloudy 54 12.2 30 -1.1 40 40 SE 7 11 29.81 1010 10 16 0.00 0.00
7:52 pm 19:52 Cloudy 55 12.8 26 -3.3 33 33 SSE 12 19 29.81 1010 10 16 0.00 0.00
8:52 pm 20:52 Cloudy 55 12.8 26 -3.3 33 33 SSW 5 7 29.81 1010 10 16 0.00 0.00
9:52 pm 21:52 Cloudy with Light Rain 56 13.3 25 -3.9 30 30 VRB 3 6 29.80 1009 10 16 0.00 0.03
10:52 pm 22:52 Cloudy 54 12.2 33 0.6 45 45 SSE 6 9 29.78 1008 10 16 0.00 0.03
11:52 pm 23:52 Cloudy 52 11.1 33 0.6 49 49 SSE 9 15 29.75 1008 10 16 0.00 0.00

Powered by AerisWeather